Weather History for Avoca, PA

Change the Weather History Date:

Friday, May 16, 2014

  Actual Average Record
Temperature  
Mean Temperature 61 °F 59 °F  
Max Temperature 70 °F 70 °F 90 °F (1998)
Min Temperature 52 °F 48 °F 34 °F (1973)
Degree Days  
Heating Degree Days 4 7  
Month to date heating degree days 76 145  
Since 1 July heating degree days 6440 6118  
Cooling Degree Days 0 1  
Month to date cooling degree days 24 9  
Year to date cooling degree days 31 15  
Growing Degree Days 10 (Base 50)    
Moisture  
Dew Point 55 °F    
Average Humidity 85    
Maximum Humidity 100    
Minimum Humidity 70    
Precipitation  
Precipitation 1.82 in 0.10 in 1.82 in (2014)
Month to date precipitation 2.05 1.71  
Year to date precipitation 12.01 11.99  
Sea Level Pressure  
Sea Level Pressure 29.85 in    
Wind  
Wind Speed 10 mph (WSW)    
Max Wind Speed 21 mph    
Max Gust Speed 36 mph    
Visibility 6 miles    
Events Rain    
T = Trace of Precipitation, MM = Missing Value Source: NWS Daily Summary

Daily Weather History Graph

Daily Weather History Graph

Search for Another Location

Airport:

Trip Planner

Search our weather history database for the weather conditions in past years. The results will help you decide how hot, cold, wet, or windy it might be!

Date:

Astronomy

May. 16, 2014 Rise Set
Actual Time 5:43 AM EDT 8:15 PM EDT
Civil Twilight 5:11 AM EDT 8:47 PM EDT
Nautical Twilight 4:32 AM EDT 9:27 PM EDT
Astronomical Twilight 3:48 AM EDT 10:11 PM EDT
Moon 10:20 PM EDT (5/16) 7:22 AM EDT (5/16)
Length of Visible Light 15h 35m
Length of Day
14h 32m
Waning Gibbous, 95% of the Moon is Illuminated
May 16
Waning Gibbous
May 21
Last Quarter
May 28
New
Jun 5
First Quarter
Jun 13
Full

Hourly Weather History & Observations

Time (EDT) Temp. Dew Point Humidity Pressure Visibility Wind Dir Wind Speed Gust Speed Precip Events Conditions
12:54 AM 70.0 °F 60.1 °F 71% 29.95 in 10.0 mi South 15.0 mph 24.2 mph N/A   Mostly Cloudy
1:54 AM 70.0 °F 59.0 °F 68% 29.91 in 10.0 mi South 12.7 mph 24.2 mph 0.00 in   Mostly Cloudy
2:54 AM 70.0 °F 59.0 °F 68% 29.89 in 10.0 mi South 11.5 mph 25.3 mph N/A   Overcast
3:54 AM 70.0 °F 59.0 °F 68% 29.86 in 10.0 mi South 13.8 mph 29.9 mph N/A   Mostly Cloudy
4:54 AM 69.1 °F 60.1 °F 73% 29.83 in 10.0 mi South 11.5 mph 25.3 mph N/A   Mostly Cloudy
5:24 AM 69.8 °F 60.8 °F 73% 29.84 in 10.0 mi SSE 16.1 mph 26.5 mph N/A   Overcast
5:54 AM 68.0 °F 60.1 °F 76% 29.80 in 9.0 mi South 10.4 mph 26.5 mph 0.00 in Rain Light Rain
6:07 AM 66.2 °F 60.8 °F 83% 29.82 in 8.0 mi SSE 15.0 mph 26.5 mph 0.00 in Rain Light Rain
6:54 AM 66.9 °F 61.0 °F 81% 29.79 in 10.0 mi SSE 12.7 mph 21.9 mph 0.04 in Rain Light Rain
7:14 AM 66.2 °F 62.6 °F 88% 29.81 in 10.0 mi South 11.5 mph 18.4 mph 0.00 in Rain Light Rain
7:54 AM 66.9 °F 63.0 °F 87% 29.76 in 1.8 mi South 11.5 mph 20.7 mph 0.06 in Rain Heavy Rain
7:59 AM 66.2 °F 62.6 °F 88% 29.79 in 2.5 mi SSE 16.1 mph 27.6 mph 0.01 in Rain Rain
8:07 AM 68.0 °F 62.6 °F 83% 29.78 in 4.0 mi South 15.0 mph 27.6 mph 0.03 in Rain Light Rain
8:54 AM 68.0 °F 63.0 °F 84% 29.74 in 3.0 mi South 18.4 mph 26.5 mph 0.10 in Rain Rain
9:05 AM 68.0 °F 62.6 °F 83% 29.78 in 2.5 mi South 17.3 mph 25.3 mph 0.04 in Rain Rain
9:17 AM 62.6 °F 59.0 °F 88% 29.82 in 2.0 mi SW 11.5 mph 26.5 mph 0.09 in Rain Heavy Rain
9:26 AM 62.6 °F 59.0 °F 88% 29.83 in 1.8 mi SW 9.2 mph - 0.15 in Rain Heavy Rain
9:54 AM 61.0 °F 59.0 °F 93% 29.81 in 1.2 mi WSW 6.9 mph - 0.38 in Rain Heavy Rain
10:07 AM 60.8 °F 59.0 °F 94% 29.82 in 2.5 mi WSW 6.9 mph - 0.05 in Rain Rain
10:21 AM 59.0 °F 57.2 °F 94% 29.84 in 2.5 mi SW 13.8 mph 20.7 mph 0.09 in Rain Heavy Rain
10:29 AM 57.2 °F 55.4 °F 94% 29.85 in 4.0 mi SW 9.2 mph 20.7 mph N/A Rain Rain
10:37 AM 57.2 °F 55.4 °F 94% 29.86 in 2.5 mi SW 10.4 mph 18.4 mph 0.13 in Rain Rain
10:47 AM 55.4 °F 55.4 °F 100% 29.86 in 1.5 mi SW 11.5 mph 18.4 mph 0.18 in Rain Heavy Rain
10:54 AM 55.9 °F 54.0 °F 93% 29.85 in 2.0 mi SSW 10.4 mph 18.4 mph 0.22 in Rain Rain
11:03 AM 55.4 °F 53.6 °F 94% 29.87 in 3.0 mi SW 12.7 mph 19.6 mph 0.01 in Rain Rain
11:07 AM 55.4 °F 53.6 °F 94% 29.87 in 2.5 mi SW 9.2 mph 19.6 mph 0.03 in Rain Heavy Rain
11:18 AM 55.4 °F 53.6 °F 94% 29.87 in 2.0 mi SW 8.1 mph 16.1 mph 0.07 in Rain Rain
11:26 AM 55.4 °F 53.6 °F 94% 29.87 in 1.8 mi SW 8.1 mph - 0.10 in Rain Rain
11:31 AM 55.4 °F 53.6 °F 94% 29.87 in 3.0 mi SW 6.9 mph - 0.11 in Rain Rain
11:45 AM 55.4 °F 53.6 °F 94% 29.87 in 4.0 mi WSW 6.9 mph - 0.13 in Rain Light Rain
11:54 AM 55.9 °F 53.1 °F 90% 29.86 in 5.0 mi WSW 6.9 mph - 0.13 in Rain Light Rain
12:12 PM 55.4 °F 53.6 °F 94% 29.87 in 1.8 mi WNW 9.2 mph - 0.03 in Rain Heavy Rain
12:21 PM 53.6 °F 51.8 °F 94% 29.87 in 1.0 mi NW 8.1 mph - 0.10 in Rain Heavy Rain
12:32 PM 55.4 °F 51.8 °F 88% 29.88 in 1.2 mi West 10.4 mph - 0.17 in Rain Rain
12:42 PM 53.6 °F 51.8 °F 94% 29.88 in 2.5 mi West 11.5 mph - 0.19 in Rain Rain
12:54 PM 54.0 °F 52.0 °F 93% 29.87 in 1.5 mi WNW 9.2 mph - 0.25 in Rain Heavy Rain
1:41 PM 53.6 °F 51.8 °F 94% 29.88 in 0.8 mi WNW 6.9 mph - 0.34 in Rain Heavy Rain
1:51 PM 53.6 °F 51.8 °F 94% 29.87 in 1.2 mi NNW 5.8 mph - 0.43 in Rain Heavy Rain
1:54 PM 52.0 °F 51.1 °F 97% 29.86 in 1.2 mi West 9.2 mph - 0.44 in Rain Heavy Rain
2:40 PM 53.6 °F 51.8 °F 94% 29.86 in 2.0 mi Variable 6.9 mph - 0.15 in Rain Light Rain
2:52 PM 53.6 °F 51.8 °F 94% 29.85 in 1.8 mi West 6.9 mph - 0.16 in Rain Light Rain
2:54 PM 54.0 °F 51.1 °F 90% 29.84 in 1.5 mi Variable 6.9 mph - 0.17 in Rain Light Rain
3:08 PM 53.6 °F 51.8 °F 94% 29.86 in 3.0 mi West 8.1 mph - 0.01 in Rain Light Rain
3:49 PM 55.4 °F 51.8 °F 88% 29.85 in 10.0 mi North 8.1 mph 18.4 mph N/A   Overcast
3:54 PM 55.9 °F 52.0 °F 87% 29.83 in 10.0 mi NW 8.1 mph - 0.01 in   Overcast
4:16 PM 55.4 °F 51.8 °F 88% 29.85 in 10.0 mi NW 10.4 mph - N/A   Overcast
4:54 PM 55.0 °F 52.0 °F 89% 29.85 in 10.0 mi Variable 3.5 mph - N/A   Overcast
5:46 PM 55.4 °F 51.8 °F 88% 29.85 in 3.0 mi WNW 8.1 mph - 0.00 in Rain Light Rain
5:54 PM 55.0 °F 52.0 °F 89% 29.84 in 4.0 mi West 9.2 mph - 0.01 in Rain Light Rain
6:09 PM 55.4 °F 51.8 °F 88% 29.86 in 5.0 mi West 6.9 mph - 0.00 in Rain Light Rain
6:16 PM 55.4 °F 51.8 °F 88% 29.86 in 5.0 mi Variable 4.6 mph - 0.00 in Rain Light Rain
6:43 PM 55.4 °F 51.8 °F 88% 29.87 in 7.0 mi West 3.5 mph - 0.01 in Rain Light Rain
6:54 PM 55.0 °F 52.0 °F 89% 29.86 in 10.0 mi West 4.6 mph - 0.01 in Rain Light Rain
7:17 PM 55.4 °F 51.8 °F 88% 29.87 in 10.0 mi WNW 10.4 mph - 0.00 in   Overcast
7:33 PM 55.4 °F 51.8 °F 88% 29.88 in 10.0 mi NW 9.2 mph - 0.00 in   Overcast
7:54 PM 55.0 °F 52.0 °F 89% 29.87 in 10.0 mi WNW 11.5 mph - 0.00 in   Overcast
8:22 PM 55.4 °F 51.8 °F 88% 29.90 in 10.0 mi West 11.5 mph - N/A   Overcast
8:54 PM 55.0 °F 51.1 °F 86% 29.89 in 10.0 mi NNW 5.8 mph - N/A   Overcast
9:05 PM 55.4 °F 51.8 °F 88% 29.91 in 10.0 mi North 6.9 mph - N/A   Overcast
9:54 PM 54.0 °F 51.1 °F 90% 29.91 in 10.0 mi NW 10.4 mph - N/A   Overcast
10:54 PM 54.0 °F 50.0 °F 86% 29.91 in 10.0 mi WNW 12.7 mph - N/A   Overcast
11:28 PM 53.6 °F 50.0 °F 88% 29.91 in 10.0 mi WNW 8.1 mph - N/A   Overcast
11:54 PM 54.0 °F 48.9 °F 83% 29.91 in 10.0 mi West 10.4 mph - N/A   Overcast